User: anonymous   Login
Location: Reading
(52.0000°N, 0.0000°E)
Time: 04:35:28
(UTC+01:00)
Language:

Iridium 41 - Orbit

View from above orbital plane
View from above orbital plane
View from above satellite
View from above satellite

Ground track
Ground track

The orbit data is extracted from the following two-line orbital elements,

1 25040U 97069B   15145.47561417  .00000034  00000-0  50636-5 0  9995
2 25040 086.3948 336.9794 0001999 089.9887 295.1335 14.34215548918282
Epoch (UTC): 25 May 2015 11:24:53
Eccentricity: 0.0001999
inclination: 86.3948°
perigee height: 776 km
apogee height: 779 km
right ascension of ascending node: 336.9794°
argument of perigee: 89.9887°
revolutions per day: 14.34215548
mean anomaly at epoch: 295.1335°
orbit number at epoch: 91828

The dashed part of the orbit path shows where the satellite is in the earth's shadow,  

DLR